Date String (YYYY-MM-DD hh:mm:ss) UTC,Instrument flags,Ambient pressure (hPa),Sample flow (lpm),Bypass flow (lpm),Sample temperature (°C),Ambient temperature (°C),ASC tube jacket temperature (°C),LED temperature (°C),Box temperature (°C),Sample RH (%),Span deviation,Mass concentration (μg/m³),Mass concentration (μg/m³),Mass concentration (μg/m³)
DateTimeUTC,F1_M11,P_M11,Q1_M11,Q2_M11,T1_M11,T2_M11,T3_M11,T4_M11,T5_M11,U1_M11,ZSPAN_M11,X0_M11,X2_M11,X1_M11
2023-02-03 12:00:00,,0831.4,5.00,0.00,22.6,21.2,00.0,31.4,24.4,05.0,0000.0,0003.10,0000.88,0000.41
2023-02-03 12:01:00,,0831.4,5.01,0.00,22.5,21.2,00.0,31.4,24.4,05.0,0000.0,0002.73,0000.91,0000.40
2023-02-03 12:02:00,,0831.4,5.00,0.00,22.5,21.1,00.0,31.4,24.3,05.0,0000.0,0002.64,0000.89,0000.39
2023-02-03 12:03:00,,0831.4,4.99,0.00,22.5,21.1,00.0,31.4,24.3,04.9,0000.0,0002.57,0000.87,0000.38
2023-02-03 12:04:00,,0831.4,5.00,0.00,22.5,21.0,00.0,31.4,24.3,04.9,0000.0,0002.52,0000.84,0000.37
2023-02-03 12:05:00,,0831.4,5.00,0.00,22.5,21.0,00.0,31.4,24.3,05.0,0000.0,0002.43,0000.81,0000.37
2023-02-03 12:06:00,,0831.3,5.01,0.00,22.5,20.9,00.0,31.3,24.2,05.0,0000.0,0002.47,0000.82,0000.36
2023-02-03 12:07:00,,0831.3,4.99,0.00,22.5,20.9,00.0,31.3,24.2,05.0,0000.0,0002.56,0000.83,0000.36
2023-02-03 12:08:00,,0831.4,5.01,0.00,22.4,20.8,00.0,31.3,24.2,05.0,0000.0,0002.69,0000.85,0000.36
2023-02-03 12:09:00,,0831.5,4.99,0.00,22.4,20.8,00.0,31.3,24.2,05.1,0000.0,0002.55,0000.84,0000.36
2023-02-03 12:10:00,,0831.5,5.01,0.00,22.4,20.8,00.0,31.3,24.2,05.2,0000.0,0002.19,0000.84,0000.37
2023-02-03 12:11:00,,0831.5,5.01,0.00,22.4,20.9,00.0,31.3,24.2,05.2,0000.0,0001.86,0000.81,0000.36
2023-02-03 12:12:00,,0831.5,5.01,0.00,22.4,20.9,00.0,31.3,24.2,05.2,0000.0,0001.89,0000.82,0000.37
2023-02-03 12:13:00,,0831.5,5.00,0.00,22.4,20.9,00.0,31.3,24.2,05.2,0000.0,0001.99,0000.83,0000.39
2023-02-03 12:14:00,,0831.5,5.00,0.00,22.4,21.0,00.0,31.3,24.2,05.3,0000.0,0002.29,0000.83,0000.40
2023-02-03 12:15:00,,0831.4,5.00,0.00,22.4,21.0,00.0,31.3,24.2,05.3,0000.0,0002.46,0000.86,0000.41
2023-02-03 12:16:00,,0831.5,5.00,0.00,22.4,21.0,00.0,31.3,24.2,05.3,0000.0,0002.48,0000.89,0000.41
2023-02-03 12:17:00,,0831.5,5.01,0.00,22.4,21.0,00.0,31.3,24.2,05.3,0000.0,0002.45,0000.87,0000.42
2023-02-03 12:18:00,,0831.5,5.00,0.00,22.4,21.0,00.0,31.2,24.1,05.5,0000.0,0002.34,0000.86,0000.43
2023-02-03 12:19:00,,0831.4,5.00,0.00,22.4,21.0,00.0,31.2,24.1,05.4,0000.0,0002.43,0000.86,0000.43
2023-02-03 12:20:00,,0831.4,5.01,0.00,22.3,20.9,00.0,31.2,24.1,05.3,0000.0,0002.61,0000.85,0000.44
2023-02-03 12:21:00,,0831.4,5.00,0.00,22.3,20.9,00.0,31.2,24.1,05.2,0000.0,0002.62,0000.86,0000.43
2023-02-03 12:22:00,,0831.4,5.01,0.00,22.3,20.9,00.0,31.2,24.1,05.2,0000.0,0002.64,0000.87,0000.44
2023-02-03 12:23:00,,0831.4,4.99,0.00,22.3,21.0,00.0,31.2,24.1,05.3,0000.0,0002.57,0000.82,0000.43
2023-02-03 12:24:00,,0831.5,4.99,0.00,22.3,21.0,00.0,31.2,24.1,05.2,0000.0,0003.08,0000.85,0000.43
2023-02-03 12:25:00,,0831.5,5.00,0.00,22.3,21.0,00.0,31.2,24.1,05.2,0000.0,0002.79,0000.86,0000.43
2023-02-03 12:26:00,,0831.5,4.99,0.00,22.3,21.0,00.0,31.2,24.1,05.2,0000.0,0002.64,0000.85,0000.43
2023-02-03 12:27:00,,0831.5,5.00,0.00,22.3,21.1,00.0,31.2,24.1,05.2,0000.0,0003.34,0000.86,0000.43
2023-02-03 12:28:00,,0831.5,5.00,0.00,22.3,21.1,00.0,31.2,24.2,05.1,0000.0,0003.59,0000.91,0000.44
2023-02-03 12:29:00,,0831.5,5.00,0.00,22.4,21.1,00.0,31.2,24.2,05.1,0000.0,0003.69,0000.93,0000.42
2023-02-03 12:30:00,,0831.5,5.00,0.00,22.4,21.1,00.0,31.2,24.2,05.1,0000.0,0003.45,0000.89,0000.41
2023-02-03 12:31:00,,0831.5,4.99,0.00,22.4,21.1,00.0,31.2,24.2,05.1,0000.0,0003.71,0000.91,0000.41
2023-02-03 12:32:00,,0831.5,5.00,0.00,22.4,21.1,00.0,31.2,24.2,05.1,0000.0,0004.37,0000.91,0000.41
2023-02-03 12:33:00,,0831.5,4.99,0.00,22.4,21.2,00.0,31.2,24.2,05.1,0000.0,0004.36,0000.91,0000.41
2023-02-03 12:34:00,,0831.5,5.00,0.00,22.4,21.2,00.0,31.2,24.2,05.1,0000.0,0004.36,0000.91,0000.41
2023-02-03 12:35:00,,0831.4,5.00,0.00,22.4,21.2,00.0,31.2,24.2,05.3,0000.0,0003.83,0000.89,0000.41
2023-02-03 12:36:00,,0831.3,5.01,0.00,22.4,21.2,00.0,31.2,24.2,05.2,0000.0,0003.73,0000.87,0000.40
2023-02-03 12:37:00,,0831.3,4.99,0.00,22.4,21.2,00.0,31.2,24.2,05.1,0000.0,0003.73,0000.87,0000.40
2023-02-03 12:38:00,,0831.4,5.01,0.00,22.4,21.2,00.0,31.2,24.2,05.1,0000.0,0003.03,0000.84,0000.39
2023-02-03 12:39:00,,0831.4,5.01,0.00,22.4,21.2,00.0,31.2,24.2,05.3,0000.0,0002.78,0000.81,0000.39
2023-02-03 12:40:00,,0831.5,4.99,0.00,22.4,21.1,00.0,31.2,24.1,05.3,0000.0,0002.62,0000.76,0000.40
2023-02-03 12:41:00,,0831.5,5.00,0.00,22.4,21.1,00.0,31.2,24.1,05.2,0000.0,0002.65,0000.76,0000.40
2023-02-03 12:42:00,,0831.5,5.00,0.00,22.4,21.1,00.0,31.2,24.1,05.2,0000.0,0002.43,0000.74,0000.40
2023-02-03 12:43:00,,0831.5,5.00,0.00,22.4,21.1,00.0,31.2,24.1,05.1,0000.0,0001.43,0000.73,0000.41
2023-02-03 12:44:00,,0831.5,5.01,0.00,22.4,21.1,00.0,31.2,24.1,05.1,0000.0,0001.35,0000.70,0000.40
2023-02-03 12:45:00,,0831.5,4.99,0.00,22.4,21.1,00.0,31.2,24.2,05.1,0000.0,0001.40,0000.71,0000.40
2023-02-03 12:46:00,,0831.5,5.00,0.00,22.4,21.1,00.0,31.2,24.2,05.1,0000.0,0001.25,0000.69,0000.39
2023-02-03 12:47:00,,0831.4,4.99,0.00,22.4,21.1,00.0,31.2,24.2,05.1,0000.0,0001.24,0000.67,0000.39
2023-02-03 12:48:00,,0831.4,5.00,0.00,22.4,21.1,00.0,31.2,24.2,05.1,0000.0,0001.27,0000.66,0000.38
2023-02-03 12:49:00,,0831.4,5.00,0.00,22.4,21.1,00.0,31.2,24.2,05.1,0000.0,0001.38,0000.69,0000.37
2023-02-03 12:50:00,,0831.5,4.99,0.00,22.4,21.1,00.0,31.2,24.2,05.1,0000.0,0001.38,0000.67,0000.36
2023-02-03 12:51:00,,0831.5,4.99,0.00,22.4,21.1,00.0,31.2,24.2,05.1,0000.0,0001.53,0000.67,0000.34
2023-02-03 12:52:00,,0831.5,5.00,0.00,22.4,21.1,00.0,31.2,24.2,05.1,0000.0,0001.74,0000.68,0000.34
2023-02-03 12:53:00,,0831.5,4.99,0.00,22.4,21.1,00.0,31.2,24.2,05.1,0000.0,0001.87,0000.70,0000.33
2023-02-03 12:54:00,,0831.5,5.00,0.00,22.4,21.1,00.0,31.2,24.1,05.2,0000.0,0001.92,0000.71,0000.32
2023-02-03 12:55:00,,0831.5,5.02,0.00,22.3,21.1,00.0,31.2,24.1,05.2,0000.0,0002.05,0000.75,0000.32
2023-02-03 12:56:00,,0831.5,5.01,0.00,22.3,21.1,00.0,31.2,24.1,05.2,0000.0,0002.15,0000.79,0000.33
2023-02-03 12:57:00,,0831.5,4.98,0.00,22.3,21.1,00.0,31.2,24.1,05.1,0000.0,0002.14,0000.78,0000.32
2023-02-03 12:58:00,,0831.5,5.00,0.00,22.3,21.0,00.0,31.2,24.1,05.1,0000.0,0002.26,0000.80,0000.33
2023-02-03 12:59:00,,0831.5,5.00,0.00,22.3,21.0,00.0,31.2,24.1,05.1,0000.0,0002.39,0000.81,0000.33
